Wendover, UT

7:57 AM MDT on July 24, 2016 (GMT -0600)
Wendover

Weather History for KENV - January, 2014

Change the Weather History Date:

Sunday, January 12, 2014

  Actual Average Record
Temperature  
Mean Temperature 38 °F -  
Max Temperature 44 °F 35 °F 61 °F (1980)
Min Temperature 33 °F 19 °F -11 °F (1993)
Degree Days  
Heating Degree Days 26    
Moisture  
Dew Point 18 °F    
Average Humidity 45    
Maximum Humidity 81    
Minimum Humidity 34    
Precipitation  
Precipitation 0.00 in - - ()
Sea Level Pressure  
Sea Level Pressure 30.14 in    
Wind  
Wind Speed 16 mph (WNW)    
Max Wind Speed 34 mph    
Max Gust Speed 41 mph    
Visibility 10 miles    
Events      
Averages and records for this station are not official NWS values.
T = Trace of Precipitation, MM = Missing Value Source: NWS Daily Summary

Daily Weather History Graph

Daily Weather History Graph

Search for Another Location

Airport or City:

Trip Planner

Search our weather history database for the weather conditions in past years. The results will help you decide how hot, cold, wet, or windy it might be!

Date:

Astronomy

Jan. 12, 2014 Rise Set
Actual Time 7:59 AM MST 5:30 PM MST
Civil Twilight 7:28 AM MST 6:00 PM MST
Nautical Twilight 6:54 AM MST 6:34 PM MST
Astronomical Twilight 6:21 AM MST 7:07 PM MST
Moon 3:01 PM MST (1/12) 5:01 AM MST (1/12)
Length of Visible Light 10h 31m
Length of Day
9h 31m
Waxing Gibbous, 90% of the Moon is Illuminated
Jan 12
Waxing Gibbous
Jan 15
Full
Jan 23
Last Quarter
Jan 30
New
Feb 6
First Quarter

Hourly Weather History & Observations

Time (MST) Temp. Windchill Dew Point Humidity Pressure Visibility Wind Dir Wind Speed Gust Speed Precip Events Conditions
12:15 AM 37.4 °F 28.9 °F 32.0 °F 81% 29.90 in 10.0 mi West 13.8 mph - N/A   Mostly Cloudy
12:35 AM 39.2 °F 31.2 °F 30.2 °F 70% 29.90 in 10.0 mi WNW 13.8 mph 19.6 mph N/A   Mostly Cloudy
12:55 AM 39.2 °F 29.3 °F 30.2 °F 70% 29.90 in 10.0 mi West 20.7 mph 28.8 mph N/A   Mostly Cloudy
1:15 AM 39.2 °F 26.6 °F 26.6 °F 61% 29.90 in 10.0 mi West 34.5 mph 41.4 mph N/A   Mostly Cloudy
1:35 AM 37.4 °F 25.6 °F 26.6 °F 65% 29.88 in 10.0 mi West 26.5 mph 32.2 mph N/A   Partly Cloudy
1:55 AM 37.4 °F 29.3 °F 24.8 °F 60% 29.90 in 10.0 mi WNW 12.7 mph - N/A   Clear
2:15 AM 37.4 °F 30.8 °F 23.0 °F 56% 29.92 in 10.0 mi WNW 9.2 mph - N/A   Clear
2:35 AM 39.2 °F 28.3 °F 23.0 °F 52% 29.94 in 10.0 mi WNW 25.3 mph 28.8 mph N/A   Mostly Cloudy
2:55 AM 37.4 °F 28.2 °F 24.8 °F 60% 29.93 in 10.0 mi NW 16.1 mph 20.7 mph N/A   Mostly Cloudy
3:15 AM 35.6 °F 28.0 °F 23.0 °F 60% 29.95 in 10.0 mi WNW 10.4 mph 17.3 mph N/A   Scattered Clouds
3:35 AM 37.4 °F 28.5 °F 19.4 °F 48% 29.97 in 10.0 mi WNW 15.0 mph 25.3 mph N/A   Clear
3:55 AM 37.4 °F 26.9 °F 19.4 °F 48% 29.98 in 10.0 mi West 20.7 mph - N/A   Clear
4:15 AM 37.4 °F 26.4 °F 17.6 °F 45% 29.98 in 10.0 mi WNW 23.0 mph 28.8 mph N/A   Clear
4:35 AM 37.4 °F 25.6 °F 17.6 °F 45% 29.98 in 10.0 mi WNW 26.5 mph - N/A   Clear
4:55 AM 35.6 °F 24.0 °F 15.8 °F 44% 29.98 in 10.0 mi WNW 23.0 mph 33.4 mph N/A   Clear
5:15 AM 35.6 °F 23.0 °F 15.8 °F 44% 29.99 in 10.0 mi WNW 27.6 mph 33.4 mph N/A   Clear
5:35 AM 35.6 °F 26.2 °F 15.8 °F 44% 30.01 in 10.0 mi NW 15.0 mph 25.3 mph N/A   Clear
5:55 AM 35.6 °F 25.9 °F 15.8 °F 44% 30.02 in 10.0 mi WNW 16.1 mph - N/A   Clear
6:15 AM 35.6 °F 24.0 °F 15.8 °F 44% 30.00 in 10.0 mi WNW 23.0 mph 29.9 mph N/A   Clear
6:35 AM 35.6 °F 23.0 °F 15.8 °F 44% 30.00 in 10.0 mi WNW 27.6 mph 34.5 mph N/A   Clear
6:55 AM 35.6 °F 23.0 °F 15.8 °F 44% 30.00 in 10.0 mi West 27.6 mph 33.4 mph N/A   Clear
7:15 AM 35.6 °F 24.0 °F 14.0 °F 41% 30.01 in 10.0 mi WNW 23.0 mph 39.1 mph N/A   Clear
7:35 AM 35.6 °F 23.2 °F 14.0 °F 41% 30.02 in 10.0 mi WNW 26.5 mph 34.5 mph N/A   Clear
7:55 AM 35.6 °F 28.0 °F 12.2 °F 38% 30.05 in 10.0 mi North 10.4 mph 34.5 mph N/A   Clear
8:15 AM 35.6 °F 29.2 °F 12.2 °F 38% 30.07 in 10.0 mi NNE 8.1 mph 19.6 mph N/A   Clear
8:35 AM 35.6 °F 28.0 °F 14.0 °F 41% 30.07 in 10.0 mi NE 10.4 mph 24.2 mph N/A   Clear
8:55 AM 37.4 °F 30.3 °F 14.0 °F 38% 30.10 in 10.0 mi NNW 10.4 mph - N/A   Clear
9:15 AM 35.6 °F 27.5 °F 15.8 °F 44% 30.12 in 10.0 mi NW 11.5 mph 24.2 mph N/A   Clear
9:35 AM 35.6 °F 25.9 °F 15.8 °F 44% 30.13 in 10.0 mi NW 16.1 mph 29.9 mph N/A   Partly Cloudy
9:55 AM 35.6 °F 25.2 °F 14.0 °F 41% 30.13 in 10.0 mi NW 18.4 mph 27.6 mph N/A   Clear
10:15 AM 37.4 °F 25.4 °F 15.8 °F 41% 30.13 in 10.0 mi NW 27.6 mph 40.3 mph N/A   Clear
10:35 AM 37.4 °F 26.4 °F 14.0 °F 38% 30.15 in 10.0 mi NW 23.0 mph 33.4 mph N/A   Clear
10:55 AM 37.4 °F 26.9 °F 12.2 °F 36% 30.16 in 10.0 mi NW 20.7 mph 29.9 mph N/A   Clear
11:15 AM 39.2 °F 29.3 °F 15.8 °F 39% 30.17 in 10.0 mi NW 20.7 mph 29.9 mph N/A   Clear
11:35 AM 39.2 °F 31.2 °F 15.8 °F 39% 30.18 in 10.0 mi North 13.8 mph 32.2 mph N/A   Clear
11:55 AM 41.0 °F 32.5 °F 15.8 °F 36% 30.18 in 10.0 mi NW 17.3 mph 24.2 mph N/A   Clear
12:15 PM 41.0 °F 32.5 °F 15.8 °F 36% 30.18 in 10.0 mi NNW 17.3 mph - N/A   Partly Cloudy
12:35 PM 42.8 °F 34.5 °F 15.8 °F 34% 30.19 in 10.0 mi NW 18.4 mph 31.1 mph N/A   Scattered Clouds
12:55 PM 42.8 °F 34.8 °F 15.8 °F 34% 30.19 in 10.0 mi NNW 17.3 mph 21.9 mph N/A   Clear
1:15 PM 42.8 °F 35.4 °F 15.8 °F 34% 30.19 in 10.0 mi NW 15.0 mph - N/A   Clear
1:35 PM 42.8 °F 35.8 °F 15.8 °F 34% 30.19 in 10.0 mi North 13.8 mph - N/A   Partly Cloudy
1:55 PM 42.8 °F 34.8 °F 15.8 °F 34% 30.19 in 10.0 mi North 17.3 mph - N/A   Scattered Clouds
2:15 PM 42.8 °F 34.5 °F 15.8 °F 34% 30.19 in 10.0 mi NNE 18.4 mph 23.0 mph N/A   Mostly Cloudy
2:35 PM 42.8 °F 35.1 °F 15.8 °F 34% 30.19 in 10.0 mi North 16.1 mph 20.7 mph N/A   Scattered Clouds
2:55 PM 44.6 °F 36.9 °F 17.6 °F 34% 30.19 in 10.0 mi NW 18.4 mph 23.0 mph N/A   Clear
3:15 PM 44.6 °F 36.6 °F 17.6 °F 34% 30.21 in 10.0 mi NW 19.6 mph 25.3 mph N/A   Clear
3:35 PM 42.8 °F 34.5 °F 15.8 °F 34% 30.22 in 10.0 mi NNW 18.4 mph 26.5 mph N/A   Clear
3:55 PM 41.0 °F 32.2 °F 15.8 °F 36% 30.22 in 10.0 mi NNW 18.4 mph - N/A   Clear
4:15 PM 42.8 °F 34.5 °F 15.8 °F 34% 30.22 in 10.0 mi NW 18.4 mph 27.6 mph N/A   Clear
4:35 PM 42.8 °F 34.3 °F 15.8 °F 34% 30.22 in 10.0 mi WNW 19.6 mph 25.3 mph N/A   Clear
4:55 PM 41.0 °F 34.3 °F 15.8 °F 36% 30.25 in 10.0 mi West 11.5 mph - N/A   Clear
5:15 PM 39.2 °F 31.2 °F 15.8 °F 39% 30.25 in 10.0 mi WNW 13.8 mph - N/A   Clear
5:35 PM 39.2 °F 31.6 °F 15.8 °F 39% 30.25 in 10.0 mi WNW 12.7 mph - N/A   Clear
5:55 PM 37.4 °F 32.1 °F 17.6 °F 45% 30.27 in 10.0 mi SSE 6.9 mph - N/A   Clear
6:15 PM 39.2 °F 35.9 °F 17.6 °F 42% 30.28 in 10.0 mi SW 4.6 mph - N/A   Mostly Cloudy
6:35 PM 39.2 °F 35.0 °F 17.6 °F 42% 30.28 in 10.0 mi SW 5.8 mph - N/A   Overcast
6:55 PM 39.2 °F 35.0 °F 17.6 °F 42% 30.30 in 10.0 mi South 5.8 mph - N/A   Overcast
7:15 PM 39.2 °F 32.0 °F 17.6 °F 42% 30.30 in 10.0 mi SSW 11.5 mph 16.1 mph N/A   Overcast
7:35 PM 39.2 °F 33.0 °F 17.6 °F 42% 30.30 in 10.0 mi SSW 9.2 mph - N/A   Overcast
7:55 PM 39.2 °F 33.6 °F 19.4 °F 45% 30.31 in 10.0 mi SSW 8.1 mph - N/A   Overcast
8:15 PM 37.4 °F 33.8 °F 19.4 °F 48% 30.31 in 10.0 mi WSW 4.6 mph - N/A   Overcast
8:35 PM 37.4 °F 32.1 °F 19.4 °F 48% 30.31 in 10.0 mi West 6.9 mph - N/A   Overcast
8:55 PM 37.4 °F 32.1 °F 19.4 °F 48% 30.31 in 10.0 mi West 6.9 mph - N/A   Overcast
9:15 PM 37.4 °F 30.3 °F 19.4 °F 48% 30.31 in 10.0 mi WNW 10.4 mph - N/A   Overcast
9:35 PM 37.4 °F 32.8 °F 19.4 °F 48% 30.33 in 10.0 mi West 5.8 mph - N/A   Overcast
9:55 PM 35.6 °F 32.8 °F 19.4 °F 52% 30.35 in 10.0 mi SE 3.5 mph - N/A   Overcast
10:15 PM 37.4 °F - 19.4 °F 48% 30.34 in 10.0 mi Calm Calm - N/A   Mostly Cloudy
10:35 PM 35.6 °F 30.7 °F 19.4 °F 52% 30.34 in 10.0 mi SE 5.8 mph - N/A   Scattered Clouds
10:55 PM 33.8 °F - 21.2 °F 60% 30.35 in 10.0 mi Calm Calm - N/A   Mostly Cloudy
11:15 PM 35.6 °F - 21.2 °F 56% 30.34 in 10.0 mi Calm Calm - N/A   Mostly Cloudy
11:35 PM 37.4 °F 32.1 °F 21.2 °F 52% 30.34 in 10.0 mi WNW 6.9 mph - N/A   Partly Cloudy
11:55 PM 35.6 °F 30.7 °F 19.4 °F 52% 30.34 in 10.0 mi SE 5.8 mph - N/A   Clear